[[{"header":{"parameterUnit":"m.s-1","parameterCategory":1,"la1":30.2991,"la2":30.254,"lo1":-89.0895,"lo2":-89.0444,"dy":0.0017,"dx":0.0017,"nx":28,"ny":28,"refTime":"2025-07-13T21:00:00:Z","depth":0,"parameterNumber":2,"parameterNumberName":"U-component_of_WINDS"},"data":[0,0,0,0,0,0,0,0,0,0,0,0,0,0,0,0,0,0,0,0,0,0,0,0,0,0,0,0,0,0,0,0,0,0,0,0,0,0,0,0,0,0,0,0,0,0,0,0,0,0,0,0,0,0,0,0,0,0,1.3408,1.3408,0,1.3467,1.3468,1.3469,1.343,1.3428,1.3426,1.3425,1.3487,1.349,1.3493,0,0,0,0,0,0,0,0,0,0,0,0,0,1.326,1.3263,1.3408,1.3408,1.3409,1.3467,1.3468,1.3469,1.343,1.3428,1.3426,1.3424,1.3485,1.3489,1.3493,0,0,0,0,0,0,0,0,0,0,0,0,0,1.3323,1.3264,1.3407,1.3397,1.3396,1.3467,1.3468,1.3469,1.3431,1.3428,1.3425,1.3423,1.3484,1.3489,1.3494,1.3578,0,0,1.3509,1.3511,0,0,0,0,0,0,0,0,1.3319,1.3328,1.3398,1.3398,1.3397,1.3438,1.3439,1.3506,1.3431,1.3418,1.3425,1.3422,1.3473,1.3479,1.3496,1.3581,1.3584,1.351,1.3513,1.3515,1.3516,0,0,0,0,0,0,0,1.3315,1.3325,1.3431,1.3399,1.3399,1.3389,1.3395,1.3451,1.346,1.3419,1.3416,1.3424,1.3472,1.3491,1.3497,1.3585,1.3509,1.3514,1.3517,1.3519,1.3743,1.3745,0,0,0,0,0,0,1.3311,1.3322,1.3429,1.3433,1.3351,1.3394,1.34,1.3428,1.3459,1.3461,1.3426,1.3422,1.3484,1.3491,1.3499,1.36,1.3515,1.3519,1.3522,1.374,1.3743,1.3746,0,0,0,0,0,0,1.3308,1.3321,1.3427,1.3377,1.3389,1.3399,1.343,1.3431,1.3449,1.3464,1.3466,1.3444,1.3482,1.3492,1.3559,1.3602,1.3522,1.3526,1.3736,1.3741,1.3745,1.3803,0,0,0,0,0,0,1.3304,1.332,1.3353,1.3378,1.3392,1.3486,1.3433,1.3434,1.3458,1.3453,1.3481,1.3483,1.3481,1.3552,1.3564,1.3607,1.353,1.3732,1.3738,1.3743,1.3798,1.3809,1.3819,0,0,0,0,0,1.3299,1.3367,1.3355,1.3368,1.3433,1.3489,1.3497,1.3492,1.3461,1.3494,1.3503,1.3482,1.3595,1.3559,1.3572,1.3618,1.373,1.3737,1.3743,1.3793,1.3807,1.3819,0,0,0,0,0,0,1.3348,1.337,1.3357,1.3435,1.346,1.3482,1.3523,1.3507,1.3542,1.3536,1.3529,1.3536,1.3606,1.3618,1.3578,1.3701,1.3657,1.3667,1.3691,1.3704,1.3715,1.3711,1.3534,0,0,0,0,0,1.3367,1.3411,1.3428,1.3495,1.3508,1.3514,1.3538,1.3532,1.3558,1.3568,1.3583,1.3609,1.365,1.3677,1.3716,1.3798,1.3804,1.3836,1.3847,1.3856,1.3865,1.3909,1.3924,1.3768,1.3768,1.3768,0,0,1.3409,1.3426,1.3454,1.3505,1.3524,1.3569,1.3523,1.3573,1.3606,1.3576,1.3641,1.3652,1.368,1.3756,1.3789,1.3768,1.3909,1.3864,1.3871,1.3875,1.3918,1.3932,1.3946,1.3773,1.3772,1.3771,0,0,1.3507,1.3525,1.3583,1.3602,1.3631,1.3634,1.3648,1.3672,1.3679,1.3743,1.3721,1.376,1.3831,1.3853,1.3873,1.3978,1.396,1.3991,1.4048,1.4091,1.4104,1.4114,1.4153,1.4167,1.3999,1.3999,1.3999,0,1.3556,1.3623,1.3615,1.3666,1.3689,1.3663,1.3722,1.3741,1.3781,1.3798,1.3773,1.3861,1.3879,1.3959,1.3984,1.4001,1.4017,1.3988,1.4102,1.4113,1.4123,1.416,1.4174,1.4003,1.4003,1.4002,1.4002,0,1.3681,1.3727,1.3771,1.381,1.3837,1.3892,1.3893,1.3922,1.3913,1.3918,1.3984,1.4003,1.4045,1.4063,1.4055,1.4142,1.4128,1.4103,1.4059,1.4142,1.4176,1.419,1.4008,1.4007,1.4006,1.4005,0,0,1.3814,1.3847,1.3863,1.388,1.3909,1.3945,1.3999,1.4039,1.4065,1.4093,1.4138,1.4197,1.4174,1.4197,1.4191,1.4229,1.4312,1.4199,1.4199,1.422,1.4409,1.4429,1.4446,1.4299,1.4302,1.4304,1.4407,0,1.3915,1.4008,1.4002,1.409,1.4133,1.4108,1.4154,1.4177,1.4183,1.422,1.4227,1.427,1.4235,1.4249,1.4285,1.4294,1.435,1.4286,1.4342,1.4344,1.4337,1.4463,1.4485,1.4582,1.442,1.4423,1.4424,0,1.4046,1.4079,1.4171,1.4193,1.4211,1.4253,1.4289,1.4325,1.435,1.4352,1.4377,1.4364,1.4418,1.4371,1.4445,1.4402,1.4424,1.4432,1.4435,1.4442,1.439,1.4475,1.4612,1.4628,1.4445,1.4444,1.4442,0,1.4136,1.4202,1.4266,1.4281,1.4308,1.4338,1.4351,1.4373,1.4398,1.443,1.4446,1.4483,1.4504,1.4534,1.4531,1.4498,1.4607,1.456,1.461,1.4611,1.4636,1.4635,1.4781,1.4648,1.4648,1.4647,1.4647,0,1.4251,1.4308,1.4306,1.4346,1.4409,1.44,1.4464,1.4473,1.4493,1.4534,1.4513,1.4552,1.4546,1.4584,1.4583,1.4645,1.4654,1.4657,1.4656,1.466,1.466,1.4676,1.4669,1.4651,1.465,1.465,1.4649,0,1.4362,1.4363,1.4431,1.445,1.4456,1.4503,1.4519,1.4557,1.456,1.4612,1.4623,1.4629,1.4673,1.4673,1.4724,1.4723,1.4799,1.479,1.4791,1.479,1.484,1.4836,1.5003,1.5025,1.4876,1.4877,1.4878,0,1.4437,1.448,1.4504,1.453,1.4544,1.4586,1.4611,1.4603,1.463,1.4661,1.4695,1.4737,1.4771,1.4843,1.4852,1.489,1.4883,1.4938,1.4888,1.4891,1.4885,1.4883,1.4888,1.4949,1.495,1.4952,1.4953,0,1.4569,1.4567,1.4603,1.464,1.467,1.4698,1.4724,1.4747,1.4742,1.4773,1.4818,1.4844,1.4895,1.4938,1.4974,1.4987,1.497,1.4968,1.4982,1.4987,1.4986,1.4989,1.4819,1.4965,1.4964,1.4963,1.4962,1.4962,1.4665,1.4703,1.4725,1.4766,1.4785,1.481,1.4846,1.4853,1.489,1.4931,1.4924,1.4974,1.4997,1.5045,1.5061,1.51,1.5081,1.5101,1.5106,1.5112,1.5118,1.4979,1.5107,1.5107,1.5106,1.5106,1.5106,0,1.4797,1.481,1.4848,1.4885,1.4917,1.4896,1.4924,1.4952,1.4997,1.5019,1.5053,1.5104,1.5145,1.5156,1.5195,1.5224,1.5217,1.5235,1.5234,1.5237,1.5132,1.5117,1.524,1.524,1.524,1.524,1.524,1.524,1.487,1.4933,1.4933,1.5004,1.5016,1.5065,1.5083,1.5105,1.5124,1.5182,1.5215,1.5222,1.524,1.528,1.5316,1.5319,1.5335,1.5356,1.5355,1.5258,1.5244,1.5232,1.5217,1.5359,1.5359,1.5457,1.5458,1.5458]},{"header":{"parameterUnit":"m.s-1","parameterCategory":1,"la1":30.2991,"la2":30.254,"lo1":-89.0895,"lo2":-89.0444,"dy":0.0017,"dx":0.0017,"nx":28,"ny":28,"refTime":"2025-07-13T21:00:00:Z","depth":0,"parameterNumber":3,"parameterNumberName":"V-component_of_WINDS"},"data":[0,0,0,0,0,0,0,0,0,0,0,0,0,0,0,0,0,0,0,0,0,0,0,0,0,0,0,0,0,0,0,0,0,0,0,0,0,0,0,0,0,0,0,0,0,0,0,0,0,0,0,0,0,0,0,0,0,0,-0.7493,-0.7494,0,-0.7599,-0.76,-0.7601,-0.7657,-0.7657,-0.7657,-0.7657,-0.7768,-0.7771,-0.7774,0,0,0,0,0,0,0,0,0,0,0,0,0,-0.7341,-0.7343,-0.7492,-0.7494,-0.7495,-0.7598,-0.76,-0.7601,-0.7657,-0.7657,-0.7657,-0.7657,-0.7767,-0.777,-0.7774,0,0,0,0,0,0,0,0,0,0,0,0,0,-0.7423,-0.7344,-0.7492,-0.7535,-0.754,-0.7598,-0.76,-0.7602,-0.7657,-0.7657,-0.7657,-0.7657,-0.7766,-0.777,-0.7774,-0.7798,0,0,-0.7787,-0.7789,0,0,0,0,0,0,0,0,-0.7418,-0.7428,-0.7528,-0.7532,-0.7538,-0.7615,-0.7587,-0.7668,-0.7657,-0.7613,-0.7657,-0.7657,-0.7717,-0.7725,-0.7745,-0.7803,-0.7808,-0.7788,-0.779,-0.7792,-0.7793,0,0,0,0,0,0,0,-0.7412,-0.7424,-0.7535,-0.7529,-0.7535,-0.755,-0.7562,-0.7603,-0.7663,-0.7617,-0.7621,-0.7633,-0.772,-0.7741,-0.7748,-0.781,-0.7788,-0.7791,-0.7794,-0.7796,-0.7894,-0.7894,0,0,0,0,0,0,-0.7399,-0.7419,-0.7531,-0.7538,-0.7477,-0.7553,-0.7566,-0.759,-0.7663,-0.7674,-0.7632,-0.7635,-0.7733,-0.7743,-0.7752,-0.7786,-0.7792,-0.7796,-0.7799,-0.7894,-0.7894,-0.7894,0,0,0,0,0,0,-0.7396,-0.7409,-0.7527,-0.748,-0.7496,-0.7555,-0.7582,-0.7592,-0.7613,-0.7674,-0.7686,-0.7642,-0.7734,-0.7746,-0.7786,-0.779,-0.7798,-0.7802,-0.7894,-0.7894,-0.7894,-0.7852,0,0,0,0,0,0,-0.7391,-0.7407,-0.7416,-0.7479,-0.7498,-0.7558,-0.7582,-0.7594,-0.762,-0.7624,-0.7687,-0.7697,-0.7735,-0.778,-0.7791,-0.7796,-0.7805,-0.7894,-0.7894,-0.7894,-0.7853,-0.785,-0.7848,0,0,0,0,0,-0.7386,-0.74,-0.7416,-0.7429,-0.751,-0.7558,-0.7569,-0.7611,-0.762,-0.763,-0.767,-0.7695,-0.7788,-0.7783,-0.7796,-0.7803,-0.7894,-0.7894,-0.7894,-0.7854,-0.7851,-0.7848,0,0,0,0,0,0,-0.7336,-0.7409,-0.7428,-0.7463,-0.7504,-0.7568,-0.7581,-0.7606,-0.7646,-0.7649,-0.77,-0.7714,-0.775,-0.7781,-0.7774,-0.7831,-0.7844,-0.7846,-0.7809,-0.7806,-0.7804,-0.7795,-0.7809,0,0,0,0,0,-0.7329,-0.7361,-0.7424,-0.7449,-0.7468,-0.7521,-0.7544,-0.7573,-0.7618,-0.7636,-0.7678,-0.7722,-0.7761,-0.7785,-0.7824,-0.7858,-0.7873,-0.7869,-0.7867,-0.7864,-0.7866,-0.7887,-0.7886,-0.7895,-0.7895,-0.7895,0,0,-0.7315,-0.7359,-0.7377,-0.744,-0.7475,-0.7508,-0.7536,-0.7569,-0.7595,-0.7641,-0.7682,-0.7715,-0.7767,-0.7804,-0.7822,-0.7831,-0.7867,-0.7864,-0.7862,-0.7865,-0.7887,-0.7886,-0.7885,-0.7895,-0.7895,-0.7895,0,0,-0.7307,-0.7343,-0.7368,-0.7403,-0.7456,-0.7491,-0.7497,-0.7558,-0.7581,-0.7623,-0.7658,-0.769,-0.7756,-0.7792,-0.7818,-0.7825,-0.785,-0.7836,-0.7823,-0.7843,-0.7842,-0.7842,-0.7845,-0.7845,-0.7838,-0.7838,-0.7838,0,-0.7283,-0.7334,-0.7378,-0.741,-0.7437,-0.7481,-0.7507,-0.7539,-0.7602,-0.7621,-0.7629,-0.7713,-0.7751,-0.7798,-0.7799,-0.7819,-0.7829,-0.7829,-0.7838,-0.7839,-0.7839,-0.7842,-0.7843,-0.7836,-0.7836,-0.7836,-0.7836,0,-0.7302,-0.7337,-0.7351,-0.7411,-0.744,-0.7469,-0.7518,-0.7543,-0.757,-0.7604,-0.7647,-0.7694,-0.7744,-0.7757,-0.7784,-0.7808,-0.7812,-0.7828,-0.7843,-0.7835,-0.7839,-0.7841,-0.7833,-0.7833,-0.7834,-0.7835,0,0,-0.7265,-0.7349,-0.7354,-0.7382,-0.7444,-0.7472,-0.7503,-0.7552,-0.7572,-0.7615,-0.7643,-0.7698,-0.7715,-0.7745,-0.7776,-0.7794,-0.7797,-0.7809,-0.7811,-0.7805,-0.7827,-0.7814,-0.7815,-0.7814,-0.7815,-0.7815,-0.7823,0,-0.7265,-0.7323,-0.7364,-0.7407,-0.744,-0.7482,-0.751,-0.7551,-0.7585,-0.7619,-0.7657,-0.7695,-0.7713,-0.7732,-0.7751,-0.7792,-0.7802,-0.7792,-0.7842,-0.7843,-0.7827,-0.7817,-0.7803,-0.7808,-0.7825,-0.7825,-0.7826,0,-0.7273,-0.7314,-0.7359,-0.7419,-0.7434,-0.7458,-0.7507,-0.7538,-0.7587,-0.761,-0.7645,-0.7677,-0.7713,-0.7725,-0.7776,-0.7769,-0.7792,-0.7815,-0.7816,-0.7823,-0.7834,-0.7823,-0.7811,-0.7812,-0.7828,-0.7828,-0.7828,0,-0.7242,-0.7308,-0.7344,-0.7367,-0.7437,-0.7453,-0.7483,-0.7532,-0.7559,-0.7602,-0.762,-0.7666,-0.7692,-0.7727,-0.7772,-0.7776,-0.7819,-0.7834,-0.7841,-0.7839,-0.7847,-0.7846,-0.7839,-0.7862,-0.7862,-0.7862,-0.7862,0,-0.7238,-0.7264,-0.7331,-0.7353,-0.7384,-0.7432,-0.7462,-0.7496,-0.7539,-0.7569,-0.7609,-0.7637,-0.7694,-0.7729,-0.7764,-0.7802,-0.7813,-0.7834,-0.7843,-0.783,-0.7828,-0.7846,-0.7847,-0.7862,-0.7862,-0.7862,-0.7862,0,-0.7207,-0.7253,-0.7295,-0.7358,-0.7375,-0.7395,-0.745,-0.7473,-0.751,-0.7547,-0.7559,-0.7616,-0.766,-0.7708,-0.7768,-0.7791,-0.7827,-0.784,-0.781,-0.7816,-0.7819,-0.7818,-0.7824,-0.7827,-0.7847,-0.7847,-0.7847,0,-0.7202,-0.7223,-0.7288,-0.7311,-0.734,-0.7376,-0.7404,-0.7453,-0.748,-0.7538,-0.7555,-0.7601,-0.7641,-0.7709,-0.7756,-0.7803,-0.7817,-0.7816,-0.7824,-0.7811,-0.7818,-0.7816,-0.7819,-0.7813,-0.7813,-0.7812,-0.7812,0,-0.7187,-0.7209,-0.7246,-0.7292,-0.7324,-0.7363,-0.7404,-0.742,-0.7478,-0.7507,-0.7551,-0.7582,-0.7643,-0.7689,-0.7742,-0.7774,-0.7803,-0.7809,-0.7813,-0.78,-0.7782,-0.7793,-0.7804,-0.7809,-0.7809,-0.7809,-0.7809,-0.781,-0.7169,-0.719,-0.7239,-0.7281,-0.7316,-0.7353,-0.7379,-0.7418,-0.7456,-0.7509,-0.7537,-0.7581,-0.7631,-0.7705,-0.7736,-0.7773,-0.7782,-0.7788,-0.7789,-0.779,-0.7787,-0.7776,-0.7783,-0.7783,-0.7783,-0.7783,-0.7783,0,-0.7156,-0.719,-0.7228,-0.7283,-0.7316,-0.734,-0.7386,-0.7412,-0.7451,-0.7495,-0.7533,-0.7585,-0.7631,-0.7682,-0.7731,-0.775,-0.7765,-0.7762,-0.7761,-0.7768,-0.7775,-0.7767,-0.7749,-0.7749,-0.7749,-0.7749,-0.7749,-0.7749,-0.7153,-0.719,-0.7218,-0.7274,-0.7309,-0.7352,-0.7377,-0.7412,-0.7447,-0.7503,-0.7541,-0.7574,-0.7622,-0.7674,-0.7717,-0.7732,-0.7748,-0.774,-0.7758,-0.7764,-0.7767,-0.777,-0.7762,-0.7744,-0.7744,-0.7748,-0.7748,-0.7748]}]]